sat.trackr.live / text

‹ back to catalog

NINGXIA-1 8

NORAD 49020 · 2021-064C

PAYLOAD ACTIVE UNKNOWN

§ Identity

Operator
Country
PRC
Launch date
2021-07-09
Launch site
TAISC
Launch vehicle
Mass (kg)
RCS (m²)

External: N2YO · Heavens-Above · Gunter

§ Orbital elements

Epoch: 2026-09-09T05:26:04.122240Z

Period
102.23 min
Inclination
44.9930°
Eccentricity
0.0008969
Mean motion
14.08547725 rev/d
Perigee alt
857.8 km
Apogee alt
870.8 km
Semi-major
7,242.5 km
B*
1.2962e-4
RAAN
206.3332°
Arg perigee
288.4558°
Mean anomaly
71.5304°
Rev number
26,607

§ Raw data

NINGXIA-1 81 49020U 21064C   26252.22643660  .00000092  00000+0  12962-3 0  99972 49020  44.9930 206.3332 0008969 288.4558  71.5304 14.08547725266071

JSON: /api/v1/satellites/49020 · /tle

For live sub-satellite position, see the globe view (requires WebGL).

§ Visibility from observer

Set your observer location to see the next 7 days of passes ≥ 10°. The values pass through the URL so the page stays shareable.

No JS? Fill the form by hand. The geolocation button needs JavaScript.